Find Starlink 31723

NORAD ID: 59553 Int'l Des: 2024-074 Owner: SPXS Country: US Constellation: starlink operational
LEOCIRCULAR

現在のビュー

3D地球を読み込み中...

About Starlink 31723

Starlink 31723 (NORAD 59553) is a starlink constellation satellite (v2 mini) launched Apr 18, 2024 by SPXS of US. It operates in LEO, CIRCULAR orbit with a mass of 730.00 kg.

次回通過

Passes for default location (London). Set your location on the main map for personalized predictions.

高度履歴

Loading altitude history...

軌道要素

1 59553U 24074V 26262.29271222 -.00000646 00000-0 -13945-4 0 9993
2 59553 43.0019 330.1334 0001315 284.4329 75.6377 15.27579098135620
Epoch: Sep 19, 2026 • Age: 49 hours

現在のステータス

高度 487.0 km
遠地点 / 近地点 N/A
速度 7.63 km/s
衛星直下点 43.10°N, 69.21°W
打ち上げ日 Apr 18, 2024
運用期間 2.4 years
タイプ internet

技術仕様

分類 Payload
質量 730.00 kg
乾燥質量 700.00 kg
長さ 0.30 m
スパン 29.00 m
形状 ? Box + pan
製造者 SPXS
バスタイプ Starlink V2M
フェーズステータス In Orbit
所有者/国 SPXS/US

Most Searched